Milwaukee, WI

11:42 AM CST on February 21, 2017 (GMT -0600)
Gen Mitchell International

Weather History for KMKE - December, 2012

Change the Weather History Date:

Sunday, December 30, 2012

  Actual Average Record
Temperature  
Mean Temperature 21 °F 23 °F  
Max Temperature 31 °F 30 °F 57 °F (1936)
Min Temperature 11 °F 17 °F -11 °F (1963)
Degree Days  
Heating Degree Days 44 42  
Month to date heating degree days 916 1152  
Since 1 July heating degree days 2288 2517  
Cooling Degree Days 0 0  
Month to date cooling degree days 0 0  
Year to date cooling degree days 1041 641  
Moisture  
Dew Point 13 °F    
Average Humidity 80    
Maximum Humidity 92    
Minimum Humidity 67    
Precipitation  
Precipitation T in 0.05 in 0.94 in (1936)
Month to date precipitation 3.87 1.98  
Year to date precipitation 29.29 34.70  
Snow  
Snow T in 0.40 in 3.50 in (1887)
Month to date snowfall 6.9 10.2  
Since 1 July snowfall 6.9 12.9  
Snow Depth 3.00 in    
Sea Level Pressure  
Sea Level Pressure 30.22 in    
Wind  
Wind Speed 9 mph (WSW)    
Max Wind Speed 14 mph    
Max Gust Speed 18 mph    
Visibility 8 miles    
Events Snow    
T = Trace of Precipitation, MM = Missing Value Source: NWS Daily Summary

Daily Weather History Graph

Daily Weather History Graph

Search for Another Location

Airport or City:

Trip Planner

Search our weather history database for the weather conditions in past years. The results will help you decide how hot, cold, wet, or windy it might be!

Date:

Astronomy

Dec. 30, 2012 Rise Set
Actual Time 7:22 AM CST 4:26 PM CST
Civil Twilight 6:50 AM CST 4:58 PM CST
Nautical Twilight 6:14 AM CST 5:34 PM CST
Astronomical Twilight 5:40 AM CST 6:08 PM CST
Moon 7:01 PM CST (12/30) 8:27 AM CST (12/30)
Length of Visible Light 10h 08m
Length of Day
9h 03m
Waning Gibbous, 95% of the Moon is Illuminated
Dec 30
Waning Gibbous
Jan 4
Last Quarter
Jan 11
New
Jan 18
First Quarter
Jan 26
Full

Hourly Weather History & Observations

Time (CST) Temp. Windchill Dew Point Humidity Pressure Visibility Wind Dir Wind Speed Gust Speed Precip Events Conditions
12:09 AM 19.4 °F 7.2 °F 14.0 °F 80% 30.15 in 10.0 mi West 11.5 mph - N/A   Scattered Clouds
12:52 AM 19.0 °F 11.1 °F 14.0 °F 81% 30.20 in 10.0 mi WSW 5.8 mph - N/A   Scattered Clouds
1:52 AM 18.0 °F 6.9 °F 12.9 °F 81% 30.22 in 10.0 mi West 9.2 mph - N/A   Partly Cloudy
2:52 AM 15.1 °F 4.2 °F 10.0 °F 80% 30.23 in 10.0 mi West 8.1 mph - N/A   Clear
3:52 AM 14.0 °F 1.2 °F 9.0 °F 80% 30.26 in 9.0 mi West 10.4 mph - N/A   Clear
4:52 AM 12.9 °F 0.7 °F 8.1 °F 81% 30.27 in 10.0 mi West 9.2 mph - N/A   Clear
5:52 AM 12.0 °F 2.7 °F 7.0 °F 80% 30.27 in 10.0 mi West 5.8 mph - N/A   Clear
6:52 AM 12.2 °F -0.2 °F 6.8 °F 79% 30.25 in 10.0 mi West 9.2 mph - N/A   Partly Cloudy
7:28 AM 10.4 °F -1.5 °F 6.8 °F 85% 30.26 in 7.0 mi West 8.1 mph - N/A   Scattered Clouds
7:41 AM 10.4 °F -1.5 °F 6.8 °F 85% 30.26 in 6.0 mi West 8.1 mph - N/A   Mostly Cloudy
7:52 AM 10.9 °F -0.8 °F 8.1 °F 88% 30.31 in 6.0 mi West 8.1 mph - N/A   Mostly Cloudy
8:33 AM 10.4 °F -1.5 °F 8.6 °F 92% 30.27 in 2.0 mi West 8.1 mph - N/A   Overcast
8:52 AM 10.9 °F -0.8 °F 7.0 °F 84% 30.32 in 1.0 mi WSW 8.1 mph - N/A   Mostly Cloudy
9:05 AM 12.2 °F -0.2 °F 8.6 °F 85% 30.28 in 2.0 mi West 9.2 mph - 0.00 in Snow Light Snow
9:31 AM 12.2 °F -0.2 °F 8.6 °F 85% 30.29 in 6.0 mi West 9.2 mph - 0.00 in   Haze
9:52 AM 14.0 °F 2.9 °F 8.1 °F 77% 30.32 in 7.0 mi SW 8.1 mph - 0.00 in   Clear
10:52 AM 17.1 °F 5.8 °F 10.0 °F 74% 30.31 in 7.0 mi SW 9.2 mph - N/A   Clear
11:52 AM 19.9 °F 10.1 °F 10.9 °F 68% 30.29 in 8.0 mi SW 8.1 mph - N/A   Clear
12:52 PM 23.0 °F 13.9 °F 14.0 °F 68% 30.26 in 8.0 mi SW 8.1 mph - N/A   Scattered Clouds
1:52 PM 24.1 °F 12.5 °F 15.1 °F 69% 30.25 in 9.0 mi SW 12.7 mph - N/A   Mostly Cloudy
2:52 PM 25.0 °F 14.8 °F 15.1 °F 66% 30.23 in 10.0 mi SW 10.4 mph - N/A   Mostly Cloudy
3:52 PM 25.0 °F 16.3 °F 15.1 °F 66% 30.22 in 9.0 mi WSW 8.1 mph - N/A   Mostly Cloudy
4:52 PM 23.0 °F 13.9 °F 16.0 °F 74% 30.21 in 9.0 mi SW 8.1 mph - N/A   Mostly Cloudy
5:52 PM 23.0 °F 17.0 °F 17.1 °F 78% 30.20 in 8.0 mi SSW 4.6 mph - N/A   Mostly Cloudy
6:52 PM 24.1 °F 15.2 °F 18.0 °F 77% 30.18 in 8.0 mi SSW 8.1 mph - N/A   Mostly Cloudy
7:52 PM 24.1 °F 16.0 °F 19.0 °F 81% 30.14 in 9.0 mi South 6.9 mph - N/A   Mostly Cloudy
8:52 PM 27.0 °F 16.7 °F 21.0 °F 78% 30.11 in 10.0 mi SSW 11.5 mph - N/A   Mostly Cloudy
9:52 PM 28.0 °F 18.6 °F 21.9 °F 78% 30.09 in 10.0 mi SSW 10.4 mph - N/A   Overcast
10:52 PM 30.0 °F 21.1 °F 24.1 °F 79% 30.06 in 10.0 mi South 10.4 mph - N/A   Overcast
11:52 PM 30.9 °F 21.7 °F 24.1 °F 76% 30.03 in 10.0 mi SSW 11.5 mph - N/A   Mostly Cloudy